TimeCST,TemperatureF,Dew PointF,Humidity,Sea Level PressureIn,VisibilityMPH,Wind Direction,Wind SpeedMPH,Gust SpeedMPH,PrecipitationIn,Events,Conditions,WindDirDegrees,DateUTC
12:53 AM,10.0,5.0,80,30.45,10.0,Calm,Calm,-,N/A,,Clear,0,2012-12-05 06:53:00
1:53 AM,10.0,5.0,80,30.45,10.0,Calm,Calm,-,N/A,,Clear,0,2012-12-05 07:53:00
2:53 AM,8.1,3.9,83,30.47,10.0,Calm,Calm,-,N/A,,Clear,0,2012-12-05 08:53:00
3:53 AM,9.0,3.9,80,30.48,10.0,Calm,Calm,-,N/A,,Clear,0,2012-12-05 09:53:00
4:53 AM,8.1,3.9,83,30.47,10.0,Calm,Calm,-,N/A,,Clear,0,2012-12-05 10:53:00
5:53 AM,7.0,3.0,84,30.47,10.0,Calm,Calm,-,N/A,,Clear,0,2012-12-05 11:53:00
6:53 AM,9.0,5.0,84,30.45,10.0,Calm,Calm,-,N/A,,Clear,0,2012-12-05 12:53:00
8:53 AM,14.0,10.0,84,30.45,10.0,Calm,Calm,-,N/A,,Clear,0,2012-12-05 14:53:00
9:53 AM,21.9,16.0,78,30.44,10.0,South,8.1,-,N/A,,Clear,180,2012-12-05 15:53:00
10:53 AM,24.1,15.1,69,30.43,10.0,South,12.7,-,N/A,,Clear,170,2012-12-05 16:53:00
11:53 AM,26.1,15.1,63,30.37,10.0,SSE,12.7,18.4,N/A,,Clear,160,2012-12-05 17:53:00
12:53 PM,28.0,15.1,58,30.34,10.0,South,9.2,-,N/A,,Clear,170,2012-12-05 18:53:00
1:53 PM,28.9,15.1,56,30.29,10.0,SE,9.2,20.7,N/A,,Clear,130,2012-12-05 19:53:00
2:53 PM,30.0,15.1,54,30.25,10.0,SE,10.4,18.4,N/A,,Clear,140,2012-12-05 20:53:00
3:53 PM,30.0,15.1,54,30.21,10.0,SSE,10.4,17.3,N/A,,Scattered Clouds,150,2012-12-05 21:53:00
4:53 PM,30.0,15.1,54,30.17,10.0,SSE,12.7,19.6,N/A,,Overcast,150,2012-12-05 22:53:00
5:53 PM,30.0,15.1,54,30.14,10.0,SSE,11.5,-,N/A,,Mostly Cloudy,160,2012-12-05 23:53:00
6:53 PM,30.0,15.1,54,30.09,10.0,SSE,6.9,17.3,N/A,,Mostly Cloudy,150,2012-12-06 00:53:00
7:53 PM,30.9,15.1,52,30.06,10.0,SSE,13.8,21.9,N/A,,Overcast,160,2012-12-06 01:53:00
8:53 PM,32.0,16.0,52,30.03,10.0,SSE,11.5,26.5,N/A,,Overcast,160,2012-12-06 02:53:00
9:53 PM,32.0,16.0,52,30.00,10.0,South,12.7,24.2,N/A,,Overcast,170,2012-12-06 03:53:00
10:53 PM,33.1,17.1,52,29.99,10.0,South,9.2,17.3,N/A,,Overcast,180,2012-12-06 04:53:00
11:53 PM,34.0,17.1,50,29.96,10.0,South,11.5,23.0,N/A,,Overcast,170,2012-12-06 05:53:00